Zurück zum Katalog

STARLINK-31348

AktivKommunikationVLEO
NORAD 59172·PAYLOAD·🇺🇸 United States

Gestartet Mar 4, 2024 von Cape Canaveral Space Force Station

Loading…

Nächste Überflüge (nächste 24 Stunden)

TLE

AktuellSource: CelesTrak SupGP

Epoche: Sep 14, 2026, 21:09 UTC

1 59172C 24044W   26257.88173611  .00046575  00000+0  16875-2 0  2577
2 59172  43.0008  71.7518 0001405 272.3106   2.4416 15.27544669    18

Verfolge STARLINK-31348 in Echtzeit mit AllMySat

Download on the App Store